OneWeb SL0398

operational
NORAD ID: 50478 Int'l Des: 2021-132 Owner: ONEWEBN Country: UK Constellation: oneweb
LEOCIRCULARPOLARONEWEB_TYPE

About OneWeb SL0398

Description loading...

Live Position

Loading 3D Globe...

Upcoming Passes

Altitude History

Altitude vs Time

uPlot chart will show altitude changes over time

Two-Line Element Set

1 50478U 21132K 25340.94324534 -.00000451 00000-0 -13078-2 0 9994
2 50478 87.8866 59.3319 0001352 96.0435 264.0848 13.11418744190418
Epoch: Dec 6, 2025 • Age: 29 hours

Current Status

Altitude 1222.6 km
Velocity 7.25 km/s
Sub-Earth Point 39.06°N, 78.39°W
Launch Date Dec 27, 2021
Age 3.9 years
Type internet

Technical Details

Classification Payload
Mass 148.00 kg
Dry Mass 140.00 kg
Total Mass 148.00 kg
Length 1.30 m
Diameter 1.00 m
Span 5.00 m
Shape Trapezoid+2 pan
Manufacturer ONEWUS
Bus Type ARROW
Phase Status In Orbit
Owner/State ONEWEBN/UK

Large Constellations

Loading constellations...